STARLINK-2411 (47826 NORAD) Tracking and Keplerian Element Data

This shows tracking and keplerian element data for the satellite.

Feedback or suggestion? Click here.




ElementValue
Catalog47826
NameSTARLINK-2411
Epoch Orbit1671
Epoch Day170.44788743
Epoch Year2021
RAAN72.0317
Inclination53.0561
Eccentricity0.0001954
Argument of Perigee89.0434
Mean Anonmoly271.0779
Mean Motion15.06399629
Decay Rate8.93E-06
L11 47826U 21018AR 21170.44788743 .00000893 00000-0 78822-4 0 9996
L22 47826 53.0561 72.0317 0001954 89.0434 271.0779 15.06399629 16714

Live tracking and technical data element details for STARLINK-2411 (NORAD 47826). STARLINK-2411 can be tracked NOW for your location showing map with azimuth and elevation plus other details from your city location.

Track the satellite on the map from your city or location and see movement details for azimuth, elevation, latitude, longitude, range, height, and movement on the map or in text.







IsCatalogInMostPopularTable: catalog: 47826, numindb: 38
Update: records affected: 1



GetName: 47826 STARLINK-2411

Hit Count: updated at: Mon, 21 Jun 2021 04:58:11 GMT